AUA25Y EDDH-LOWW

Flight info

Callsign AUA25Y
Flight time 1h 9m
Altitude 37000
Route RAMAR6G/33 RAMAR Z998 RATMO DCT HDO DCT EVIKU DCT BITSI DCT MIKOV MIKOV8W
Aircraft A320/M-SDE3FGHIRWY/LB1

Departure

Time 2026-04-25 18:22
Airport Hamburg Helmut Schmidt Airport (EDDH)

Arrival

Time 2026-04-25 19:31
Airport Vienna International Airport (LOWW)
Time Latitude Longitude Altitude Speed Heading
2026-04-25 18:03 53.63245 10.00358 49 ft 0 kts 86°
2026-04-25 18:14 53.63245 10.00354 48 ft 1 kts 86°
2026-04-25 18:14 53.63244 10.00324 48 ft 3 kts 86°
2026-04-25 18:14 53.63242 10.00290 48 ft 3 kts 86°
2026-04-25 18:14 53.63241 10.00256 43 ft 3 kts 86°
2026-04-25 18:15 53.63240 10.00223 43 ft 3 kts 99°
2026-04-25 18:15 53.63246 10.00193 48 ft 3 kts 129°
2026-04-25 18:15 53.63259 10.00175 44 ft 2 kts 170°
2026-04-25 18:15 53.63264 10.00173 45 ft 0 kts 175°
2026-04-25 18:17 53.63229 10.00178 46 ft 15 kts 176°
2026-04-25 18:17 53.63127 10.00190 48 ft 14 kts 176°
2026-04-25 18:18 53.63046 10.00156 48 ft 11 kts 208°
2026-04-25 18:18 53.62983 10.00091 48 ft 10 kts 212°
2026-04-25 18:18 53.62934 10.00022 48 ft 9 kts 230°
2026-04-25 18:18 53.62922 9.99993 48 ft 0 kts 239°
2026-04-25 18:19 53.62918 9.99983 48 ft 2 kts 239°
2026-04-25 18:19 53.62890 9.99889 45 ft 17 kts 243°
2026-04-25 18:19 53.62876 9.99742 44 ft 11 kts 310°
2026-04-25 18:20 53.62896 9.99721 45 ft 0 kts 333°
2026-04-25 18:22 53.62904 9.99715 45 ft 10 kts 335°
2026-04-25 18:22 53.63060 9.99578 45 ft 64 kts 332°
2026-04-25 18:22 53.63945 9.98816 56 ft 143 kts 328°
2026-04-25 18:22 53.64841 9.98089 731 ft 143 kts 328°
2026-04-25 18:23 53.65723 9.97334 1507 ft 145 kts 329°
2026-04-25 18:23 53.66674 9.96501 1961 ft 165 kts 330°
2026-04-25 18:23 53.67749 9.95561 2432 ft 180 kts 329°
2026-04-25 18:23 53.68921 9.94733 3246 ft 187 kts 346°
2026-04-25 18:24 53.70258 9.94653 4188 ft 191 kts 354°
2026-04-25 18:24 53.71586 9.94656 5114 ft 191 kts 353°
2026-04-25 18:24 53.72922 9.94922 5942 ft 204 kts 12°
2026-04-25 18:24 53.74092 9.96538 6600 ft 241 kts 45°
2026-04-25 18:25 53.74881 9.99218 7155 ft 270 kts 66°
2026-04-25 18:25 53.75077 10.02487 7908 ft 287 kts 82°
2026-04-25 18:25 53.75051 10.05981 8455 ft 308 kts 84°
2026-04-25 18:25 53.75000 10.09676 9196 ft 319 kts 84°
2026-04-25 18:26 53.74942 10.13462 10041 ft 326 kts 84°
2026-04-25 18:26 53.74882 10.17409 10505 ft 347 kts 84°
2026-04-25 18:26 53.74832 10.21621 10855 ft 369 kts 84°
2026-04-25 18:26 53.74787 10.26026 11510 ft 379 kts 84°
2026-04-25 18:27 53.74742 10.30356 12254 ft 384 kts 84°
2026-04-25 18:27 53.74689 10.34901 13025 ft 389 kts 84°
2026-04-25 18:27 53.74631 10.39505 13803 ft 394 kts 84°
2026-04-25 18:27 53.74568 10.44155 14489 ft 399 kts 84°
2026-04-25 18:28 53.74499 10.48862 15190 ft 403 kts 84°
2026-04-25 18:28 53.74426 10.53627 15841 ft 409 kts 84°
2026-04-25 18:28 53.74346 10.58458 16525 ft 413 kts 84°
2026-04-25 18:29 53.74171 10.68252 17886 ft 421 kts 84°
2026-04-25 18:29 53.74076 10.73221 18523 ft 425 kts 84°
2026-04-25 18:30 53.73776 10.88394 20254 ft 436 kts 84°
2026-04-25 18:30 53.73676 10.93530 20817 ft 439 kts 84°
2026-04-25 18:30 53.73574 10.98712 21373 ft 443 kts 84°
2026-04-25 18:30 53.73469 11.03934 21910 ft 448 kts 84°
2026-04-25 18:31 53.73355 11.09222 22438 ft 454 kts 84°
2026-04-25 18:31 53.73219 11.14581 22901 ft 459 kts 84°
2026-04-25 18:31 53.73077 11.19991 23407 ft 463 kts 85°
2026-04-25 18:31 53.72932 11.25444 23862 ft 466 kts 85°
2026-04-25 18:32 53.72787 11.30930 24308 ft 469 kts 85°
2026-04-25 18:32 53.72642 11.36447 24738 ft 472 kts 85°
2026-04-25 18:32 53.72493 11.42071 25180 ft 474 kts 85°
2026-04-25 18:32 53.72347 11.47640 25605 ft 477 kts 85°
2026-04-25 18:33 53.72201 11.53177 26063 ft 479 kts 84°
2026-04-25 18:33 53.72044 11.58898 26394 ft 485 kts 85°
2026-04-25 18:33 53.71886 11.64603 26758 ft 488 kts 85°
2026-04-25 18:33 53.71726 11.70337 27146 ft 491 kts 85°
2026-04-25 18:34 53.71564 11.76118 27537 ft 494 kts 85°
2026-04-25 18:34 53.71401 11.81926 27938 ft 496 kts 85°
2026-04-25 18:34 53.71129 11.87769 28330 ft 506 kts 94°
2026-04-25 18:34 53.70094 11.93530 28698 ft 521 kts 111°
2026-04-25 18:35 53.68183 11.98757 29054 ft 529 kts 129°
2026-04-25 18:35 53.65500 12.03004 29443 ft 530 kts 148°
2026-04-25 18:35 53.62330 12.06162 29705 ft 529 kts 155°
2026-04-25 18:35 53.59101 12.09136 30137 ft 529 kts 155°
2026-04-25 18:36 53.55862 12.12077 30447 ft 530 kts 155°
2026-04-25 18:36 53.52606 12.15013 30752 ft 532 kts 155°
2026-04-25 18:36 53.49338 12.17963 31048 ft 534 kts 155°
2026-04-25 18:36 53.46060 12.20936 31323 ft 536 kts 155°
2026-04-25 18:37 53.42778 12.23927 31662 ft 537 kts 155°
2026-04-25 18:37 53.39503 12.26915 32063 ft 536 kts 154°
2026-04-25 18:37 53.36232 12.29894 32461 ft 535 kts 154°
2026-04-25 18:37 53.32970 12.32852 32883 ft 532 kts 154°
2026-04-25 18:38 53.29722 12.35784 33353 ft 529 kts 154°
2026-04-25 18:38 53.26438 12.38739 33795 ft 528 kts 154°
2026-04-25 18:38 53.23204 12.41644 34166 ft 528 kts 155°
2026-04-25 18:38 53.19975 12.44541 34521 ft 526 kts 155°
2026-04-25 18:39 53.16755 12.47428 34907 ft 524 kts 155°
2026-04-25 18:39 53.13553 12.50293 35281 ft 522 kts 155°
2026-04-25 18:39 53.10355 12.53149 35636 ft 520 kts 155°
2026-04-25 18:39 53.07172 12.55991 35966 ft 518 kts 155°
2026-04-25 18:40 53.04011 12.58812 36389 ft 514 kts 155°
2026-04-25 18:40 53.00865 12.61609 36765 ft 511 kts 155°
2026-04-25 18:40 52.97732 12.64385 36979 ft 510 kts 155°
2026-04-25 18:40 52.94604 12.67154 37010 ft 508 kts 155°
2026-04-25 18:41 52.88379 12.72652 37022 ft 507 kts 156°
2026-04-25 18:41 52.82159 12.78137 37013 ft 507 kts 155°
2026-04-25 18:42 52.77992 12.81804 37001 ft 507 kts 155°
2026-04-25 18:42 52.69703 12.89053 37011 ft 507 kts 156°
2026-04-25 18:43 52.64479 12.93611 37002 ft 507 kts 156°
2026-04-25 18:43 52.58250 12.99038 37012 ft 507 kts 156°
2026-04-25 18:44 52.52010 13.04449 36978 ft 507 kts 155°
2026-04-25 18:44 52.45776 13.09834 37016 ft 506 kts 156°
2026-04-25 18:45 52.39548 13.15200 37001 ft 506 kts 156°
2026-04-25 18:45 52.33320 13.20558 36989 ft 505 kts 156°
2026-04-25 18:46 52.27093 13.25892 36983 ft 505 kts 156°
2026-04-25 18:46 52.20878 13.31198 36966 ft 504 kts 155°
2026-04-25 18:47 52.14672 13.36479 36981 ft 503 kts 156°
2026-04-25 18:47 52.08474 13.41728 37013 ft 502 kts 156°
2026-04-25 18:48 52.02271 13.46975 36998 ft 502 kts 156°
2026-04-25 18:48 51.96071 13.52199 36969 ft 502 kts 156°
2026-04-25 18:49 51.89875 13.57394 36986 ft 501 kts 156°
2026-04-25 18:49 51.83684 13.62577 36994 ft 501 kts 156°
2026-04-25 18:50 51.77454 13.67786 37001 ft 501 kts 156°
2026-04-25 18:50 51.71265 13.72942 36969 ft 500 kts 156°
2026-04-25 18:51 51.66128 13.77205 36999 ft 499 kts 156°
2026-04-25 18:51 51.58910 13.83179 37002 ft 499 kts 156°
2026-04-25 18:52 51.52735 13.88262 37013 ft 498 kts 156°
2026-04-25 18:52 51.46562 13.93329 37001 ft 498 kts 156°
2026-04-25 18:53 51.40402 13.98391 36991 ft 497 kts 156°
2026-04-25 18:53 51.34252 14.03429 37021 ft 496 kts 156°
2026-04-25 18:54 51.25040 14.10908 37019 ft 495 kts 156°
2026-04-25 18:55 51.18908 14.15870 37026 ft 494 kts 156°
2026-04-25 18:55 51.12786 14.20814 37014 ft 493 kts 156°
2026-04-25 18:56 51.06682 14.25745 37032 ft 492 kts 156°
2026-04-25 18:56 51.00545 14.30695 37047 ft 491 kts 156°
2026-04-25 18:57 50.94433 14.35547 37028 ft 490 kts 160°
2026-04-25 18:57 50.87988 14.38695 36995 ft 483 kts 172°
2026-04-25 18:58 50.81439 14.41102 36999 ft 483 kts 171°
2026-04-25 18:58 50.71612 14.44743 36997 ft 484 kts 171°
2026-04-25 18:59 50.58501 14.49589 37006 ft 484 kts 171°
2026-04-25 19:00 50.48733 14.53608 37026 ft 488 kts 161°
2026-04-25 19:01 50.42890 14.59110 37020 ft 494 kts 141°
2026-04-25 19:01 50.40385 14.62809 36991 ft 495 kts 137°
2026-04-25 19:01 50.35450 14.70323 37002 ft 494 kts 137°
2026-04-25 19:02 50.28014 14.81495 37004 ft 494 kts 137°
2026-04-25 19:03 50.22219 14.90193 37015 ft 494 kts 137°
2026-04-25 19:03 50.15590 15.00132 37014 ft 494 kts 138°
2026-04-25 19:04 50.08148 15.11225 37002 ft 494 kts 138°
2026-04-25 19:05 49.98208 15.25959 37005 ft 494 kts 138°
2026-04-25 19:06 49.93234 15.33319 36985 ft 494 kts 138°
2026-04-25 19:06 49.85753 15.44339 36986 ft 495 kts 138°
2026-04-25 19:07 49.78314 15.55224 36999 ft 494 kts 139°
2026-04-25 19:08 49.70812 15.66137 37015 ft 493 kts 139°
2026-04-25 19:09 49.63311 15.77030 36627 ft 496 kts 139°
2026-04-25 19:09 49.62461 15.78262 36421 ft 496 kts 139°
2026-04-25 19:09 49.55793 15.87912 34877 ft 494 kts 139°
2026-04-25 19:10 49.53251 15.91575 34293 ft 493 kts 139°
2026-04-25 19:10 49.50749 15.95170 33723 ft 493 kts 139°
2026-04-25 19:10 49.48239 15.98768 33093 ft 493 kts 139°
2026-04-25 19:10 49.45739 16.02355 32475 ft 490 kts 139°
2026-04-25 19:11 49.43258 16.05916 31881 ft 486 kts 139°
2026-04-25 19:11 49.40799 16.09435 31286 ft 481 kts 139°
2026-04-25 19:11 49.38360 16.12912 30715 ft 477 kts 139°
2026-04-25 19:11 49.35937 16.16360 30165 ft 473 kts 139°
2026-04-25 19:12 49.33539 16.19770 29513 ft 469 kts 139°
2026-04-25 19:12 49.31054 16.22964 28804 ft 463 kts 147°
2026-04-25 19:12 49.28303 16.25452 28132 ft 455 kts 160°
2026-04-25 19:12 49.25358 16.27109 27443 ft 449 kts 165°
2026-04-25 19:13 49.22416 16.28668 26788 ft 446 kts 165°
2026-04-25 19:13 49.19495 16.30232 26174 ft 443 kts 165°
2026-04-25 19:13 49.16593 16.31769 25554 ft 440 kts 165°
2026-04-25 19:13 49.13711 16.33271 24947 ft 437 kts 165°
2026-04-25 19:14 49.10842 16.34752 24351 ft 434 kts 166°
2026-04-25 19:14 49.09877 16.35246 24143 ft 432 kts 166°
2026-04-25 19:14 49.05160 16.37650 23101 ft 428 kts 166°
2026-04-25 19:14 49.02341 16.39087 22434 ft 426 kts 166°
2026-04-25 19:15 48.99545 16.40522 21731 ft 424 kts 166°
2026-04-25 19:15 48.97659 16.41494 21289 ft 423 kts 166°
2026-04-25 19:15 48.94879 16.42924 20650 ft 421 kts 166°
2026-04-25 19:15 48.91216 16.44805 19832 ft 418 kts 166°
2026-04-25 19:16 48.89355 16.45761 19417 ft 417 kts 166°
2026-04-25 19:16 48.86616 16.47168 18817 ft 415 kts 165°
2026-04-25 19:16 48.83887 16.48569 18219 ft 413 kts 165°
2026-04-25 19:16 48.81169 16.49958 17546 ft 411 kts 165°
2026-04-25 19:17 48.78461 16.51335 16889 ft 410 kts 165°
2026-04-25 19:17 48.75764 16.52704 16219 ft 408 kts 165°
2026-04-25 19:17 48.73073 16.54072 15591 ft 407 kts 165°
2026-04-25 19:17 48.70392 16.55435 14972 ft 405 kts 165°
2026-04-25 19:18 48.67725 16.56788 14425 ft 402 kts 165°
2026-04-25 19:18 48.65104 16.58119 14090 ft 392 kts 165°
2026-04-25 19:18 48.62548 16.59414 13752 ft 384 kts 165°
2026-04-25 19:18 48.60037 16.60688 13382 ft 377 kts 165°
2026-04-25 19:19 48.57566 16.61939 13019 ft 373 kts 165°
2026-04-25 19:19 48.55109 16.63177 12648 ft 371 kts 165°
2026-04-25 19:19 48.52665 16.64406 12272 ft 369 kts 165°
2026-04-25 19:19 48.51023 16.65232 12040 ft 367 kts 165°
2026-04-25 19:20 48.48602 16.66450 11670 ft 366 kts 165°
2026-04-25 19:20 48.45420 16.68046 11216 ft 363 kts 165°
2026-04-25 19:20 48.43031 16.69245 10869 ft 361 kts 165°
2026-04-25 19:20 48.40651 16.70440 10532 ft 359 kts 165°
2026-04-25 19:21 48.38288 16.71625 10199 ft 357 kts 165°
2026-04-25 19:21 48.33639 16.73959 9488 ft 342 kts 165°
2026-04-25 19:21 48.31403 16.75079 9121 ft 336 kts 165°
2026-04-25 19:22 48.29207 16.76177 8754 ft 330 kts 165°
2026-04-25 19:22 48.27051 16.77254 8396 ft 324 kts 164°
2026-04-25 19:22 48.22929 16.79318 7689 ft 296 kts 164°
2026-04-25 19:23 48.21023 16.80268 7341 ft 281 kts 164°
2026-04-25 19:23 48.17472 16.82026 6662 ft 259 kts 164°
2026-04-25 19:23 48.15756 16.82875 6330 ft 260 kts 163°
2026-04-25 19:24 48.14054 16.83789 5970 ft 261 kts 157°
2026-04-25 19:24 48.12465 16.85114 5615 ft 262 kts 146°
2026-04-25 19:24 48.09505 16.88250 4916 ft 261 kts 154°
2026-04-25 19:25 48.06202 16.89829 4198 ft 241 kts 191°
2026-04-25 19:25 48.04632 16.89176 3858 ft 230 kts 204°
2026-04-25 19:25 48.03288 16.88082 3599 ft 213 kts 230°
2026-04-25 19:26 48.02526 16.86312 3368 ft 196 kts 255°
2026-04-25 19:26 48.02349 16.84392 3150 ft 180 kts 277°
2026-04-25 19:26 48.02670 16.82659 3027 ft 171 kts 297°
2026-04-25 19:26 48.03191 16.81081 3019 ft 169 kts 297°
2026-04-25 19:27 48.03710 16.79510 3011 ft 168 kts 297°
2026-04-25 19:27 48.04059 16.78449 3008 ft 168 kts 297°
2026-04-25 19:27 48.04721 16.76438 3004 ft 157 kts 297°
2026-04-25 19:27 48.05206 16.74962 2984 ft 158 kts 297°
2026-04-25 19:28 48.05695 16.73474 2853 ft 157 kts 297°
2026-04-25 19:28 48.06174 16.72016 2700 ft 157 kts 297°
2026-04-25 19:28 48.06654 16.70552 2485 ft 156 kts 297°
2026-04-25 19:28 48.07125 16.69115 2294 ft 152 kts 298°
2026-04-25 19:29 48.07579 16.67730 2078 ft 140 kts 298°
2026-04-25 19:29 48.07991 16.66470 1910 ft 139 kts 297°
2026-04-25 19:29 48.08415 16.65179 1723 ft 132 kts 297°
2026-04-25 19:29 48.08809 16.63971 1556 ft 131 kts 296°
2026-04-25 19:30 48.09223 16.62706 1398 ft 136 kts 295°
2026-04-25 19:30 48.09642 16.61427 1234 ft 138 kts 296°
2026-04-25 19:30 48.10066 16.60134 1018 ft 138 kts 295°
2026-04-25 19:30 48.10480 16.58867 839 ft 133 kts 296°
2026-04-25 19:31 48.10879 16.57646 676 ft 129 kts 295°
2026-04-25 19:31 48.11253 16.56520 621 ft 110 kts 294°
2026-04-25 19:31 48.11518 16.55677 620 ft 65 kts 297°
2026-04-25 19:31 48.11655 16.55360 619 ft 26 kts 311°
2026-04-25 19:32 48.11786 16.55178 611 ft 26 kts 323°
2026-04-25 19:32 48.11866 16.55146 614 ft 4 kts 14°
2026-04-25 19:32 48.11871 16.55149 613 ft 0 kts 21°
2026-04-25 19:33 48.11872 16.55150 613 ft 2 kts 28°
2026-04-25 19:33 48.11852 16.55304 614 ft 22 kts 116°
2026-04-25 19:33 48.11787 16.55498 617 ft 20 kts 116°
2026-04-25 19:34 48.11728 16.55680 617 ft 19 kts 115°
2026-04-25 19:34 48.11640 16.55951 622 ft 26 kts 116°
2026-04-25 19:34 48.11571 16.56164 615 ft 22 kts 116°
2026-04-25 19:34 48.11485 16.56434 623 ft 39 kts 116°
2026-04-25 19:35 48.11380 16.56752 617 ft 30 kts 116°
2026-04-25 19:35 48.11288 16.57024 614 ft 26 kts 115°
2026-04-25 19:35 48.11231 16.57202 616 ft 14 kts 110°
2026-04-25 19:35 48.11280 16.57309 611 ft 19 kts 27°
2026-04-25 19:36 48.11444 16.57425 609 ft 28 kts 26°
2026-04-25 19:36 48.11619 16.57429 614 ft 25 kts 344°
2026-04-25 19:36 48.11753 16.57370 622 ft 16 kts 344°
2026-04-25 19:36 48.11827 16.57325 617 ft 6 kts 296°
2026-04-25 19:37 48.11849 16.57226 617 ft 19 kts 288°
2026-04-25 19:37 48.11882 16.57060 613 ft 16 kts 296°
2026-04-25 19:37 48.11918 16.56920 619 ft 5 kts 238°
2026-04-25 19:37 48.11886 16.56894 609 ft 5 kts 205°
2026-04-25 19:38 48.11869 16.56882 609 ft 0 kts 206°
2026-04-25 19:38 48.11868 16.56881 609 ft 2 kts 206°
2026-04-25 19:38 48.11865 16.56879 609 ft 0 kts 206°